AirNav   Everest Fuels
 
 579 users online  

NE10 Flying C Heliport
Elkhorn, Nebraska, USA

GOING TO ELKHORN?


FAA INFORMATION EFFECTIVE 16 JULY 2020

Location

FAA Identifier: NE10
Lat/Long: 41-15-25.0000N 096-14-37.0900W
41-15.416667N 096-14.618167W
41.2569444,-96.2436361
(estimated)
Elevation: 1227 ft. / 374 m (estimated)
Variation: 05E (1995)
From city: 2 miles S of ELKHORN, NE
Time zone: UTC -5 (UTC -6 during Standard Time)
Zip code: 68022

Heliport Operations

Heliport use: Private use. Permission required prior to landing
Activation date: 01/1998
Control tower: no
ARTCC: MINNEAPOLIS CENTER
FSS: COLUMBUS FLIGHT SERVICE STATION
Attendance: CONTINUOUS
Wind indicator: yes
Segmented circle: yes
Lights: SS-SR

Heliport Communications

WX AWOS-3 at MLE (7 nm SE): 118.25 (402-895-6778)
WX AWOS-3 at BTA (11 nm NE): 120.225 (402-426-0448)
WX AWOS-3P at AHQ (16 nm W): 125.975 (402-443-4030)
WX ASOS at OMA (16 nm E): PHONE 402-271-7515
WX AWOS-3 at FET (17 nm NW): 121.275 (402-727-9135)

Nearby radio navigation aids

VOR radial/distance  VOR name  Freq  Var
OVRr275/23.5OMAHA VORTAC116.3008E
SCBr134/27.1SCRIBNER VOR/DME111.0006E
LNKr039/30.1LINCOLN VORTAC116.1009E

 
NDB name  Hdg/Dist  Freq  Var  ID
WAHOO080/16.040006EAHQ .- .... --.-
PLATTSMOUTH316/24.032905EPMV .--. -- ...-

Heliport Services

Runway Information

Helipad H1

Dimensions: 35 x 35 ft. / 11 x 11 m
Surface: asphalt/concrete
Runway edge lights: FLD
Latitude: 41-15.416667N
Longitude: 096-14.618167W
Elevation: 1227.0 ft.
Traffic pattern: leftleft

Heliport Ownership and Management from official FAA records

Ownership: Privately-owned
Owner: JAMES CLARK
20980 RAWHIDE ROAD
ELKHORN, NE 68022
Phone 402-289-4929
Manager: JAMES CLARK
20980 RAWHIDE ROAD
ELKHORN, NE 68022
Phone 402-289-4929

Heliport Operational Statistics

Aircraft based on the field: 2
Single engine airplanes: 1
Helicopters: 1
    

Additional Remarks

A52-H1 4.5 FT FENCE ALL SIDES 35 FT FM HELIPAD; 30 FT HOUSE 50 FT N & 30 FT TREE 100 FT W.
FOR CD CTC OMAHA APCH AT 402-682-4395.

Instrument Procedures

There are no published instrument procedures at NE10.

Some nearby airports with instrument procedures:

KMLE - Millard Airport (7 nm SE)
KBTA - Blair Municipal Airport (11 nm NE)
KAHQ - Wahoo Municipal Airport (16 nm W)
KOMA - Eppley Airfield (16 nm E)
KFET - Fremont Municipal Airport (17 nm NW)
KOFF - Offutt Air Force Base (17 nm SE)
 
Loc | Ops | Rwys | IFR | FBO | Links
Com | Nav | Svcs | Stats | Notes

Silverhawk Aviation, Inc.
AirBoss

 
Area around NE10 (Flying C Heliport)
 
Road maps at: MapQuest Bing Google
 
Aerial photo
No photo
 
Sectional chart

 
Airport distance calculator
Flying to Flying C Heliport? Find the distance to fly.

From to NE10

Sunrise and sunset
Times for 13-Aug-2020
 Local
(UTC-5)
 Zulu
(UTC)
Morning civil twilight06:0411:04
Sunrise06:3411:34
Sunset20:2501:25
Evening civil twilight20:5501:55

Current date and time
Zulu (UTC)  13-Aug-2020 05:31:51
Local (UTC-5)  13-Aug-2020 00:31:51
 
METAR
KMLE 
7nm SE 
130515Z AUTO 14004KT 10SM CLR 24/23 A2999 RMK AO2 T02430225
KBTA 
11nm NE 
130515Z AUTO 15005KT 10SM CLR 23/23 A2999 RMK AO2 T02320226
KAHQ 
16nm W 
130515Z AUTO 14005KT 10SM CLR 22/22 A2998 RMK AO2 T02220222
KOMA 
16nm E 
130452Z 17006KT 10SM BKN200 25/23 A2998 RMK AO2 SLP142 T02500228
KFET 
17nm NW 
130515Z AUTO 14009KT 10SM CLR 24/23 A2998 RMK AO2 T02420225
KOFF 
17nm SE 
130456Z AUTO 00000KT 10SM FEW200 23/22 A2998 RMK AO2 SLP148 T02250216 $
TAF
KOMA 
16nm E 
121720Z 1218/1318 16012G20KT P6SM SCT020 BKN150 FM130100 15011KT P6SM BKN150 FM131200 14006KT P6SM SCT027 FM131400 16008KT P6SM BKN045
KOFF 
17nm SE 
130200Z 1302/1408 14006KT 9999 SCT140 SCT250 QNH2994INS BECMG 1315/1316 16010G15KT 9999 SCT035 QNH2994INS BECMG 1323/1324 15009KT 9999 FEW030 QNH2994INS TX30/1320Z TN22/1310Z
NOTAMs
Click for the latest NOTAMs
NOTAMs are issued by the DoD/FAA and will open in a separate window not controlled by AirNav.

 

 
 

Would you like to see your business listed on this page?

 If your business provides an interesting product or service to pilots, flight crews, aircraft, or users of the Flying C Heliport, you should consider listing it here.  To start the listing process, click on the button below
 
Add a business
 

Other Pages about Flying C Heliport

Update a link
 
Copyright © AirNav, LLC. All rights reserved. Privacy Policy  Contact